| time (UTC) | temp F | wind direction | speed MPH | gust MPH | rain 1hr in | rain 24hr in | rain mn in | humidity % | barometer mb |
| 20260507070024 | 71 | 205 | 1.0 | 0.0 | 0.00 | 0.00 | 0.00 | 29 | 1011.5 |
| 20260507064515 | 72 | 205 | 2.0 | 0.0 | 0.00 | 0.00 | 0.00 | 31 | 1011.5 |
| 20260507063014 | 71 | 205 | 1.0 | 0.0 | 0.00 | 0.00 | 0.00 | 29 | 1011.4 |
| 20260507061515 | 72 | 205 | 1.0 | 0.0 | 0.00 | 0.00 | 0.00 | 30 | 1011.5 |
| 20260507060014 | 71 | 205 | 0.0 | 0.0 | 0.00 | 0.00 | 0.00 | 31 | 1011.5 |
| 20260507054519 | 72 | 205 | 0.0 | 0.0 | 0.00 | 0.00 | 0.00 | 30 | 1011.5 |
| 20260507053014 | 72 | 205 | 0.0 | 0.0 | 0.00 | 0.00 | 0.00 | 30 | 1011.5 |
| 20260507051513 | 73 | 205 | 0.0 | 0.0 | 0.00 | 0.00 | 0.00 | 27 | 1011.4 |
| 20260507050013 | 74 | 205 | 0.0 | 0.0 | 0.00 | 0.00 | 0.00 | 26 | 1011.3 |
| 20260507044512 | 75 | 205 | 0.0 | 0.0 | 0.00 | 0.00 | 0.00 | 25 | 1011.1 |
| 20260507043020 | 76 | 205 | 0.0 | 0.0 | 0.00 | 0.00 | 0.00 | 24 | 1011.0 |
| 20260507041511 | 76 | 205 | 0.0 | 0.0 | 0.00 | 0.00 | 0.00 | 24 | 1010.8 |
| 20260507040011 | 77 | 205 | 0.0 | 0.0 | 0.00 | 0.00 | 0.00 | 23 | 1010.7 |
| 20260507034509 | 77 | 205 | 0.0 | 0.0 | 0.00 | 0.00 | 0.00 | 23 | 1010.6 |
| 20260507033010 | 77 | 205 | 0.0 | 0.0 | 0.00 | 0.00 | 0.00 | 22 | 1010.3 |
| 20260507031511 | 78 | 205 | 0.0 | 0.0 | 0.00 | 0.00 | 0.00 | 22 | 1010.1 |
| 20260507030009 | 78 | 205 | 1.0 | 0.0 | 0.00 | 0.00 | 0.00 | 22 | 1010.1 |
| 20260507024511 | 78 | 205 | 2.0 | 0.0 | 0.00 | 0.00 | 0.00 | 21 | 1010.0 |
| 20260507023008 | 79 | 205 | 3.0 | 0.0 | 0.00 | 0.00 | 0.00 | 21 | 1009.7 |
| 20260507021507 | 79 | 203 | 3.0 | 0.0 | 0.00 | 0.00 | 0.00 | 20 | 1009.6 |
| 20260507020006 | 80 | 203 | 3.0 | 0.0 | 0.00 | 0.00 | 0.00 | 20 | 1009.7 |
| 20260507014506 | 80 | 207 | 3.0 | 0.0 | 0.00 | 0.00 | 0.00 | 20 | 1009.7 |
| 20260507013016 | 81 | 173 | 3.0 | 0.0 | 0.00 | 0.00 | 0.00 | 19 | 1009.7 |
| 20260507011510 | 81 | 283 | 3.0 | 0.0 | 0.00 | 0.00 | 0.00 | 19 | 1009.6 |
| 20260507010009 | 81 | 292 | 4.0 | 0.0 | 0.00 | 0.00 | 0.00 | 19 | 1009.7 |
| 20260507004504 | 82 | 178 | 4.0 | 0.0 | 0.00 | 0.00 | 0.00 | 19 | 1009.7 |
| 20260507003005 | 81 | 177 | 5.0 | 0.0 | 0.00 | 0.00 | 0.00 | 19 | 1009.7 |
| 20260507001504 | 81 | 266 | 4.0 | 0.0 | 0.00 | 0.00 | 0.00 | 19 | 1009.7 |
| 20260507000002 | 81 | 11 | 4.0 | 0.0 | 0.00 | 0.00 | 0.00 | 20 | 1009.6 |
| 20260506234500 | 82 | 319 | 3.0 | 0.0 | 0.00 | 0.00 | 0.00 | 19 | 1009.8 |
| 20260506233111 | 81 | 316 | 4.0 | 0.0 | 0.00 | 0.00 | 0.00 | 20 | 1009.8 |
| 20260506231602 | 81 | 254 | 3.0 | 0.0 | 0.00 | 0.00 | 0.00 | 20 | 1010.1 |
| 20260506230056 | 81 | 273 | 4.0 | 0.0 | 0.00 | 0.00 | 0.00 | 20 | 1010.3 |
| 20260506224554 | 80 | 247 | 5.0 | 0.0 | 0.00 | 0.00 | 0.00 | 20 | 1010.4 |
| 20260506223053 | 79 | 223 | 4.0 | 0.0 | 0.00 | 0.00 | 0.00 | 21 | 1010.6 |
| 20260506221551 | 80 | 253 | 5.0 | 0.0 | 0.00 | 0.00 | 0.00 | 21 | 1010.9 |
| 20260506220050 | 79 | 319 | 7.0 | 0.0 | 0.00 | 0.00 | 0.00 | 21 | 1010.9 |
| 20260506214553 | 80 | 329 | 3.0 | 0.0 | 0.00 | 0.00 | 0.00 | 21 | 1011.2 |
| 20260506213108 | 79 | 334 | 5.0 | 0.0 | 0.00 | 0.00 | 0.00 | 21 | 1011.4 |
| 20260506211548 | 78 | 341 | 3.0 | 0.0 | 0.00 | 0.00 | 0.00 | 22 | 1011.8 |
| 20260506210046 | 77 | 317 | 7.0 | 0.0 | 0.00 | 0.00 | 0.00 | 23 | 1011.8 |
| 20260506204543 | 77 | 345 | 5.0 | 0.0 | 0.00 | 0.00 | 0.00 | 22 | 1012.0 |
| 20260506203040 | 77 | 326 | 4.0 | 0.0 | 0.00 | 0.00 | 0.00 | 23 | 1012.2 |
| 20260506201541 | 76 | 233 | 5.0 | 0.0 | 0.00 | 0.00 | 0.00 | 24 | 1012.4 |
| 20260506200038 | 75 | 317 | 5.0 | 0.0 | 0.00 | 0.00 | 0.00 | 25 | 1012.6 |
| 20260506194538 | 76 | 306 | 4.0 | 0.0 | 0.00 | 0.00 | 0.00 | 26 | 1012.7 |
| 20260506193037 | 75 | 202 | 5.0 | 0.0 | 0.00 | 0.00 | 0.00 | 25 | 1012.8 |
| 20260506191539 | 75 | 192 | 4.0 | 0.0 | 0.00 | 0.00 | 0.00 | 25 | 1013.2 |
| 20260506190035 | 75 | 290 | 5.0 | 0.0 | 0.00 | 0.00 | 0.00 | 26 | 1013.2 |
| 20260506184545 | 74 | 265 | 1.0 | 0.0 | 0.00 | 0.00 | 0.00 | 26 | 1013.6 |
| 20260506183038 | 73 | 254 | 6.0 | 0.0 | 0.00 | 0.00 | 0.00 | 28 | 1013.7 |
| 20260506181536 | 74 | 302 | 2.0 | 0.0 | 0.00 | 0.00 | 0.00 | 29 | 1013.9 |
| 20260506180029 | 72 | 303 | 3.0 | 0.0 | 0.00 | 0.00 | 0.00 | 30 | 1013.9 |
| 20260506174524 | 71 | 302 | 5.0 | 0.0 | 0.00 | 0.00 | 0.00 | 31 | 1013.9 |
| 20260506173019 | 71 | 296 | 3.0 | 0.0 | 0.00 | 0.00 | 0.00 | 30 | 1013.8 |
| 20260506171514 | 71 | 299 | 2.0 | 0.0 | 0.00 | 0.00 | 0.00 | 32 | 1013.9 |
| 20260506170011 | 70 | 299 | 3.0 | 0.0 | 0.00 | 0.00 | 0.00 | 32 | 1013.7 |
| 20260506164509 | 69 | 298 | 2.0 | 0.0 | 0.00 | 0.00 | 0.00 | 32 | 1013.7 |
| 20260506163003 | 69 | 298 | 3.0 | 0.0 | 0.00 | 0.00 | 0.00 | 33 | 1013.7 |
| 20260506161600 | 68 | 299 | 2.0 | 0.0 | 0.00 | 0.00 | 0.00 | 34 | 1013.8 |
| 20260506160108 | 68 | 301 | 2.0 | 0.0 | 0.00 | 0.00 | 0.00 | 34 | 1013.7 |
| 20260506154602 | 68 | 302 | 1.0 | 0.0 | 0.00 | 0.00 | 0.00 | 34 | 1013.9 |
| 20260506153110 | 67 | 302 | 1.0 | 0.0 | 0.00 | 0.00 | 0.00 | 36 | 1013.9 |
| 20260506151548 | 67 | 290 | 1.0 | 0.0 | 0.00 | 0.00 | 0.00 | 36 | 1013.9 |
| 20260506150052 | 66 | 290 | 0.0 | 0.0 | 0.00 | 0.00 | 0.00 | 37 | 1013.9 |
| 20260506144539 | 63 | 254 | 1.0 | 0.0 | 0.00 | 0.00 | 0.00 | 39 | 1013.9 |
| 20260506143036 | 62 | 255 | 3.0 | 0.0 | 0.00 | 0.00 | 0.00 | 41 | 1013.8 |
| 20260506141534 | 62 | 255 | 3.0 | 0.0 | 0.00 | 0.00 | 0.00 | 42 | 1013.6 |
| 20260506140031 | 61 | 256 | 4.0 | 0.0 | 0.00 | 0.00 | 0.00 | 43 | 1013.3 |
| 20260506134531 | 60 | 259 | 0.0 | 0.0 | 0.00 | 0.00 | 0.00 | 44 | 1013.3 |
| 20260506133026 | 59 | 259 | 2.0 | 0.0 | 0.00 | 0.00 | 0.00 | 46 | 1013.0 |
| 20260506131532 | 58 | 259 | 1.0 | 0.0 | 0.00 | 0.00 | 0.00 | 51 | 1013.0 |
| 20260506130019 | 58 | 259 | 0.0 | 0.0 | 0.00 | 0.00 | 0.00 | 51 | 1012.8 |
| 20260506124517 | 58 | 265 | 0.0 | 0.0 | 0.00 | 0.00 | 0.00 | 48 | 1012.6 |
| 20260506123015 | 57 | 265 | 0.0 | 0.0 | 0.00 | 0.00 | 0.00 | 49 | 1012.3 |
| 20260506121514 | 58 | 265 | 0.0 | 0.0 | 0.00 | 0.00 | 0.00 | 48 | 1012.2 |
| 20260506120018 | 58 | 265 | 0.0 | 0.0 | 0.00 | 0.00 | 0.00 | 47 | 1012.1 |
| 20260506114520 | 59 | 265 | 0.0 | 0.0 | 0.00 | 0.00 | 0.00 | 47 | 1012.2 |
| 20260506113024 | 59 | 265 | 0.0 | 0.0 | 0.00 | 0.00 | 0.00 | 47 | 1012.1 |
| 20260506111513 | 59 | 265 | 2.0 | 0.0 | 0.00 | 0.00 | 0.00 | 49 | 1012.1 |
| 20260506110012 | 58 | 265 | 0.0 | 0.0 | 0.00 | 0.00 | 0.00 | 52 | 1012.0 |
| 20260506104509 | 58 | 265 | 0.0 | 0.0 | 0.00 | 0.00 | 0.00 | 50 | 1011.7 |
| 20260506103011 | 59 | 265 | 0.0 | 0.0 | 0.00 | 0.00 | 0.00 | 49 | 1011.7 |
| 20260506101508 | 59 | 265 | 0.0 | 0.0 | 0.00 | 0.00 | 0.00 | 49 | 1011.6 |
| 20260506100004 | 60 | 265 | 0.0 | 0.0 | 0.00 | 0.00 | 0.00 | 46 | 1011.4 |
| 20260506094601 | 60 | 265 | 0.0 | 0.0 | 0.00 | 0.00 | 0.00 | 44 | 1011.3 |
| 20260506093057 | 61 | 265 | 0.0 | 0.0 | 0.00 | 0.00 | 0.00 | 44 | 1011.0 |
| 20260506091601 | 62 | 265 | 0.0 | 0.0 | 0.00 | 0.00 | 0.00 | 40 | 1011.1 |
| 20260506090101 | 63 | 265 | 0.0 | 0.0 | 0.00 | 0.00 | 0.00 | 39 | 1011.0 |
| 20260506084605 | 63 | 265 | 1.0 | 0.0 | 0.00 | 0.00 | 0.00 | 39 | 1011.1 |
| 20260506083055 | 64 | 265 | 2.0 | 0.0 | 0.00 | 0.00 | 0.00 | 38 | 1011.0 |
| 20260506081557 | 64 | 265 | 2.0 | 0.0 | 0.00 | 0.00 | 0.00 | 38 | 1011.0 |
| 20260506080104 | 62 | 265 | 0.0 | 0.0 | 0.00 | 0.00 | 0.00 | 40 | 1011.2 |
| 20260506073053 | 61 | 265 | 0.0 | 0.0 | 0.00 | 0.00 | 0.00 | 42 | 1011.0 |
| 20260506071559 | 62 | 265 | 0.0 | 0.0 | 0.00 | 0.00 | 0.00 | 40 | 1010.9 |